User: anonymous   Login
Location: Fort Wayne
(41.1310°N, 85.1290°W)
Time: 23:08:09
(UTC-04:00)
Language:

MetOp-A - Orbit

View from above orbital plane
View from above orbital plane
View from above satellite
View from above satellite

Ground track
Ground track

The orbit data is extracted from the following two-line orbital elements,

1 29499U 06044A   15087.02530247  .00000166  00000-0  95554-4 0  9996
2 29499 098.6847 147.7155 0001747 073.0045 051.7412 14.21499225437750
Epoch (UTC): 28 March 2015 00:36:26
Eccentricity: 0.0001747
inclination: 98.6847°
perigee height: 819 km
apogee height: 821 km
right ascension of ascending node: 147.7155°
argument of perigee: 73.0045°
revolutions per day: 14.21499225
mean anomaly at epoch: 51.7412°
orbit number at epoch: 43775

The dashed part of the orbit path shows where the satellite is in the earth's shadow,  

DLR